Weather reports worldwide

Advertisment
Bedford, United Kingdom (3560): temperature & dewpoint: 17.03.2017 14:00:00 - 23.03.2017 14:00:00 (GMT)Bedford, United Kingdom (3560): temperature -20cm & temperature -100cm: 17.03.2017 14:00:00 - 23.03.2017 14:00:00 (GMT)Bedford, United Kingdom (3560): wind speed & gusts: 17.03.2017 14:00:00 - 23.03.2017 14:00:00 (GMT)Bedford, United Kingdom (3560): wind direction: 17.03.2017 14:00:00 - 23.03.2017 14:00:00 (GMT)Bedford, United Kingdom (3560): reduced air pressure: 17.03.2017 14:00:00 - 23.03.2017 14:00:00 (GMT)Bedford, United Kingdom (3560): visibility: 17.03.2017 14:00:00 - 23.03.2017 14:00:00 (GMT)Bedford, United Kingdom (3560): precipitation: 17.03.2017 14:00:00 - 23.03.2017 14:00:00 (GMT)
Date & Time tt [°C] td [°C] tt -20cm [°C] tt -100cm [°C] ff [km/h] ff [kn] fx [km/h] fx [kn] dd ppp [hPa] vv [km] rr [mm]
23.03.2017 14:00:00 10,6 3,7 - - 31 17 50 27 ENE 1017,7 21 0,0
23.03.2017 13:00:00 11,0 4,5 - - 31 17 - - ENE 1017,4 30 0,0
23.03.2017 12:00:00 10,2 4,8 - - 29 16 48 26 ENE 1017,2 14 0,2
23.03.2017 11:00:00 9,9 5,9 - - 28 15 - - ENE 1016,9 12 0,0
23.03.2017 10:00:00 9,0 5,7 - - 24 13 - - ENE 1016,8 12 0,0
23.03.2017 09:00:00 7,9 6,1 7,9 8,5 24 13 - - ENE 1016,3 8 0,0
23.03.2017 08:00:00 6,3 5,0 - - 18 10 - - NE 1015,6 9 0,0
23.03.2017 07:00:00 5,6 4,4 - - 18 10 - - NE 1014,7 10 0,0
23.03.2017 06:00:00 5,5 5,3 - - 18 10 - - NE 1013,7 4,0 0,0
23.03.2017 05:00:00 5,5 5,5 - - 18 10 - - NE 1013,6 2,3 0,4
23.03.2017 04:00:00 5,2 5,1 - - 15 8 - - NNE 1013,1 1,2 1,2
23.03.2017 03:00:00 4,8 4,5 - - 9 5 - - NE 1012,8 2,5 2,4
23.03.2017 02:00:00 4,8 4,7 - - 11 6 - - E 1012,8 4,0 1,2
23.03.2017 01:00:00 3,7 3,6 - - 9 5 - - NE 1012,4 2,6 0,0
23.03.2017 00:00:00 3,1 3,0 - - 9 5 - - NE 1012,0 3,4 0,0
22.03.2017 23:00:00 2,9 2,7 - - 5 3 - - ENE 1011,5 3,6 0,0
22.03.2017 22:00:00 2,9 2,6 - - 11 6 - - ESE 1011,2 4,9 0,0
22.03.2017 21:00:00 3,3 2,5 - - 11 6 - - SE 1010,6 20 0,0
22.03.2017 20:00:00 3,9 2,1 - - 9 5 - - SE 1009,8 50 0,0
22.03.2017 19:00:00 6,4 3,7 - - 5 3 - - SSE 1008,8 45 0,0
22.03.2017 18:00:00 7,9 4,0 - - 9 5 - - SSW 1007,6 40 0,0
22.03.2017 17:00:00 9,1 3,6 - - 18 10 - - S 1006,6 50 0,0
22.03.2017 16:00:00 9,0 4,1 - - 21 11 - - S 1006,1 45 0,0
22.03.2017 15:00:00 7,4 4,5 - - 24 13 - - SSW 1005,6 50 0,0
22.03.2017 14:00:00 7,1 6,0 - - 21 11 - - S 1005,1 45 3,4
22.03.2017 13:00:00 6,8 5,2 - - 29 16 54 29 SSE 1004,7 50 0,4
22.03.2017 12:00:00 6,2 4,6 - - 35 19 57 31 SSE 1004,7 13 0,6
22.03.2017 11:00:00 6,7 4,4 - - 22 12 50 27 SSE 1004,4 35 0,0
22.03.2017 10:00:00 6,6 3,7 - - 28 15 48 26 SSE 1004,2 13 0,0
22.03.2017 09:00:00 6,8 2,8 8,4 8,5 35 19 50 27 SE 1003,8 30 0,0
22.03.2017 08:00:00 5,8 2,3 - - 29 16 - - SE 1003,7 35 0,0
22.03.2017 07:00:00 5,0 2,3 - - 29 16 - - SE 1003,9 27 0,0
22.03.2017 06:00:00 4,6 2,1 - - 24 13 - - SE 1004,1 35 0,0
22.03.2017 05:00:00 4,5 1,9 - - 24 13 - - SE 1004,3 35 0,0
22.03.2017 04:00:00 4,5 1,9 - - 21 11 - - SE 1004,9 40 0,0
22.03.2017 03:00:00 3,9 1,8 - - 18 10 - - SE 1005,2 30 0,0
22.03.2017 02:00:00 4,8 2,0 - - 21 11 - - SSE 1006,0 35 0,0
22.03.2017 01:00:00 4,6 2,1 - - 18 10 - - SSE 1006,8 35 0,0
22.03.2017 00:00:00 4,5 2,2 - - 21 11 - - S 1007,3 30 0,0
21.03.2017 23:00:00 4,6 2,0 - - 18 10 - - S 1007,6 45 0,0
21.03.2017 22:00:00 4,9 2,0 - - 15 8 - - S 1008,1 45 0,0
21.03.2017 21:00:00 5,5 1,9 - - 16 9 - - SSW 1008,4 50 0,0
21.03.2017 20:00:00 5,5 1,5 - - 9 5 - - SW 1008,9 50 0,0
21.03.2017 19:00:00 6,8 1,6 - - 18 10 - - SSW 1008,7 50 0,0
21.03.2017 18:00:00 6,9 1,2 - - 21 11 - - SSW 1008,3 50 0,0
21.03.2017 17:00:00 7,7 1,8 - - 15 8 - - SW 1008,3 45 0,0
21.03.2017 16:00:00 8,1 -0,9 - - 21 11 48 26 WSW 1008,3 50 0,0
21.03.2017 15:00:00 9,3 -0,2 - - 28 15 46 25 SW 1008,2 45 0,0
21.03.2017 14:00:00 10,4 0,0 - - 22 12 46 25 WSW 1008,2 40 0,0
21.03.2017 13:00:00 8,5 -2,0 - - 28 15 - - W 1008,7 50 0,0
21.03.2017 12:00:00 9,2 -1,1 - - 28 15 46 25 WSW 1008,6 35 0,0
21.03.2017 11:00:00 7,7 -1,6 - - 24 13 46 25 WSW 1008,6 45 0,0
21.03.2017 10:00:00 7,2 0,5 - - 22 12 - - WSW 1008,6 27 0,0
21.03.2017 09:00:00 5,4 0,4 9,0 8,4 21 11 - - WSW 1008,5 40 0,0
21.03.2017 08:00:00 4,1 0,0 - - 18 10 - - WSW 1008,1 45 0,0
21.03.2017 07:00:00 2,8 -0,4 - - 13 7 - - WSW 1007,6 17 0,0
21.03.2017 06:00:00 2,8 -0,3 - - 16 9 - - WSW 1006,8 50 0,0
21.03.2017 05:00:00 3,1 0,0 - - 16 9 - - WSW 1006,2 50 0,0
21.03.2017 04:00:00 4,0 0,6 - - 18 10 - - WSW 1005,6 50 0,0
21.03.2017 03:00:00 4,8 2,2 - - 18 10 - - WSW 1005,0 45 0,0
21.03.2017 02:00:00 5,3 2,9 - - 18 10 - - WSW 1004,3 50 0,0
21.03.2017 01:00:00 5,8 4,2 - - 18 10 - - WSW 1004,0 35 0,0
21.03.2017 00:00:00 5,7 4,1 - - 16 9 - - SW 1004,1 30 0,0
20.03.2017 23:00:00 6,1 4,4 - - 16 9 - - WSW 1004,0 35 0,0
20.03.2017 22:00:00 6,4 4,2 - - 18 10 - - WSW 1003,8 40 0,0
20.03.2017 21:00:00 7,3 5,4 - - 18 10 - - SW 1003,5 30 0,0
20.03.2017 20:00:00 7,1 5,4 - - 11 6 - - SW 1003,2 50 0,0
20.03.2017 19:00:00 7,8 5,3 - - 13 7 - - WSW 1002,6 50 0,0
20.03.2017 18:00:00 9,2 5,6 - - 18 10 - - WSW 1001,8 50 0,0
20.03.2017 17:00:00 10,0 6,1 - - 21 11 - - WSW 1001,5 50 0,0
20.03.2017 16:00:00 10,2 6,7 - - 21 11 - - W 1001,1 50 0,0
20.03.2017 15:00:00 9,1 7,9 - - 16 9 - - W 1001,0 30 1,8
20.03.2017 14:00:00 8,9 8,0 - - 22 12 46 25 W 1000,4 28 4,8
20.03.2017 13:00:00 11,6 9,6 - - 29 16 54 29 SW 999,0 12 0,4
20.03.2017 12:00:00 11,8 10,3 - - 29 16 52 28 SW 999,6 5 0,0
20.03.2017 11:00:00 12,5 9,9 - - 28 15 46 25 SW 1000,1 50 0,0
20.03.2017 10:00:00 12,1 9,8 - - 28 15 48 26 SW 1000,7 50 0,0
20.03.2017 09:00:00 11,8 9,6 9,7 8,2 26 14 - - SSW 1001,1 50 0,0
20.03.2017 08:00:00 10,9 9,8 - - 22 12 - - SSW 1001,8 35 0,0
20.03.2017 07:00:00 10,9 9,5 - - 22 12 - - SW 1002,5 16 0,0
20.03.2017 06:00:00 10,7 9,6 - - 21 11 - - SW 1002,7 50 0,0
20.03.2017 05:00:00 10,6 9,8 - - 18 10 - - SSW 1003,3 35 0,0
20.03.2017 04:00:00 11,0 9,6 - - 22 12 - - SW 1003,9 50 0,0
20.03.2017 03:00:00 10,8 9,5 - - 22 12 - - SW 1004,1 40 0,0
20.03.2017 02:00:00 10,9 9,2 - - 21 11 - - SW 1004,9 40 0,0
20.03.2017 01:00:00 10,7 9,0 - - 15 8 - - SW 1005,6 30 0,0
20.03.2017 00:00:00 11,0 8,9 - - 18 10 - - SW 1006,2 30 0,0
19.03.2017 23:00:00 11,1 8,9 - - 21 11 - - SW 1006,1 45 0,0
19.03.2017 22:00:00 11,3 8,8 - - 18 10 - - SW 1006,4 50 0,0
19.03.2017 21:00:00 11,2 8,9 - - 18 10 - - SW 1006,3 50 0,0
19.03.2017 20:00:00 11,2 8,8 - - 18 10 - - SW 1006,3 30 0,0
19.03.2017 19:00:00 11,9 8,9 - - 21 11 - - WSW 1006,2 50 0,0
19.03.2017 18:00:00 12,3 9,0 - - 26 14 46 25 SW 1005,8 29 0,0
19.03.2017 17:00:00 12,7 9,3 - - 24 13 46 25 WSW 1005,3 30 0,0
19.03.2017 16:00:00 12,7 9,0 - - 24 13 50 27 SW 1005,2 30 0,0
19.03.2017 15:00:00 14,2 8,2 - - 29 16 55 30 WSW 1005,2 40 0,0
19.03.2017 14:00:00 15,0 7,4 - - 39 21 57 31 W 1005,3 29 0,0
19.03.2017 13:00:00 15,0 8,0 - - 37 20 57 31 W 1005,2 50 0,0
19.03.2017 12:00:00 14,2 8,5 - - 37 20 61 33 WSW 1005,6 50 0,0
19.03.2017 11:00:00 13,4 8,6 - - 31 17 52 28 WSW 1006,3 40 0,0
19.03.2017 10:00:00 12,0 8,4 - - 26 14 48 26 WSW 1006,4 30 0,0
19.03.2017 09:00:00 11,4 7,9 9,2 8,2 24 13 - - WSW 1006,7 30 0,0
19.03.2017 08:00:00 10,9 7,8 - - 22 12 - - WSW 1007,1 40 0,0
19.03.2017 07:00:00 10,6 8,2 - - 22 12 - - WSW 1007,4 50 0,0
19.03.2017 06:00:00 10,4 8,4 - - 22 12 48 26 WSW 1006,8 50 0,0
19.03.2017 05:00:00 10,2 8,6 - - 26 14 48 26 SW 1007,1 50 0,0
19.03.2017 04:00:00 10,4 8,9 - - 22 12 - - WSW 1007,6 50 0,0
19.03.2017 03:00:00 10,4 9,2 - - 21 11 - - SW 1008,1 35 0,0
19.03.2017 02:00:00 10,4 9,3 - - 21 11 - - WSW 1008,9 25 0,0
19.03.2017 01:00:00 10,3 9,2 - - 21 11 - - SW 1009,0 14 0,0
19.03.2017 00:00:00 10,8 9,6 - - 21 11 - - SW 1009,3 13 0,0
18.03.2017 23:00:00 11,1 9,8 - - 16 9 - - SW 1009,9 14 0,0
18.03.2017 22:00:00 11,1 10,2 - - 22 12 - - WSW 1010,0 13 0,0
18.03.2017 21:00:00 11,3 10,0 - - 18 10 - - WSW 1010,5 11 0,0
18.03.2017 20:00:00 11,6 10,2 - - 16 9 - - WSW 1010,2 14 0,0
18.03.2017 19:00:00 11,9 10,6 - - 16 9 - - WSW 1010,1 16 0,0
18.03.2017 18:00:00 12,1 11,1 - - 15 8 - - WSW 1009,6 15 0,0
18.03.2017 17:00:00 12,3 11,2 - - 15 8 - - W 1009,2 50 0,2
18.03.2017 16:00:00 12,7 11,0 - - 22 12 - - W 1009,3 5 0,0
18.03.2017 15:00:00 12,9 11,0 - - 16 9 - - W 1008,9 4,8 0,2
18.03.2017 14:00:00 14,2 9,9 - - 29 16 48 26 W 1008,9 30 0,0
18.03.2017 13:00:00 15,3 8,9 - - 34 18 48 26 W 1009,1 50 0,0
18.03.2017 12:00:00 15,2 9,5 - - 35 19 50 27 W 1008,9 50 0,0
18.03.2017 11:00:00 14,1 9,2 - - 31 17 52 28 W 1009,0 45 0,0
18.03.2017 10:00:00 13,5 9,1 - - 34 18 52 28 W 1008,3 35 0,0
18.03.2017 09:00:00 13,1 9,0 8,4 8,2 29 16 46 25 W 1008,2 50 0,0
18.03.2017 08:00:00 12,2 9,0 - - 21 11 - - W 1007,9 50 0,0
18.03.2017 07:00:00 11,3 9,1 - - 16 9 - - WSW 1007,5 50 0,0
18.03.2017 06:00:00 10,8 9,5 - - 18 10 - - W 1007,2 10 0,0
18.03.2017 05:00:00 11,9 9,0 - - 26 14 - - W 1006,5 30 0,0
18.03.2017 04:00:00 11,8 9,0 - - 24 13 - - WSW 1005,6 50 0,0
18.03.2017 03:00:00 10,8 9,0 - - 24 13 - - WSW 1005,6 19 0,0
18.03.2017 02:00:00 9,9 8,8 - - 26 14 - - WSW 1005,4 40 0,0
18.03.2017 01:00:00 10,0 8,3 - - 22 12 - - WSW 1005,7 6 0,0
18.03.2017 00:00:00 10,2 7,5 - - 26 14 48 26 WSW 1005,7 40 0,0
17.03.2017 23:00:00 9,9 7,2 - - 28 15 54 29 WSW 1006,0 50 0,0
17.03.2017 22:00:00 9,3 6,8 - - 29 16 54 29 WSW 1006,8 40 0,0
17.03.2017 21:00:00 8,8 6,4 - - 28 15 57 31 WSW 1007,0 45 0,0
17.03.2017 20:00:00 8,7 5,7 - - 29 16 61 33 SW 1008,3 45 0,0
17.03.2017 19:00:00 8,6 5,2 - - 29 16 50 27 WSW 1009,5 35 0,0
17.03.2017 18:00:00 8,6 4,9 - - 28 15 48 26 SW 1011,0 30 0,0
17.03.2017 17:00:00 8,9 4,4 - - 29 16 55 30 WSW 1012,4 40 0,0
17.03.2017 16:00:00 9,2 4,0 - - 26 14 46 25 WSW 1013,6 30 0,0
17.03.2017 15:00:00 9,6 3,3 - - 22 12 50 27 WSW 1015,0 40 0,0
17.03.2017 14:00:00 9,8 2,9 - - 28 15 - - WSW 1015,8 50 0,0

tt = temperature
td = dewpoint
tt -20cm = temperature -20cm
tt -100cm = temperature -100cm
ff = wind speed
fx = gusts
dd = wind direction
ppp = reduced air pressure
vv = visibility
rr = precipitation

Next stations